CAPE
1308 1257 922 872 1040 1279 1596 1552 1692 1811 1695 1813 991 1007 502 622 538 478 1325 1655 1484 1776 1778 1053 687 636 465 271 238 223 154 98 79 102 50 75 60 36 55 44 34 3 82
1464 1398 1133 987 1071 1410 1790 1971 2054 2297 2074 1851 1545 1052 821 552 503 396 541 1029 919 1555 1662 1223 832 731 1053 761 573 538 365 337 247 78 3 28 182 162 160 111 102 34 97
1640 1481 1437 1180 1147 1509 2032 2257 2368 2446 2168 1866 1781 1511 1541 878 415 411 851 620 968 1166 1449 1532 1159 1141 948 743 697 674 556 622 684 169 57 14 40 65 185 119 120 82 52
1725 1686 1488 1404 1373 1739 2021 2387 2708 2739 2489 2372 1877 1781 1304 1036 409 323 847 938 1100 1657 1779 1875 1626 1216 1395 1311 993 745 538 529 698 548 273 406 280 6 56 142 147 76 48
1630 1769 1642 1536 1496 1642 2103 2523 2821 2926 2157 2413 2564 1922 1877 1403 622 783 874 1528 1456 1491 1897 2118 2057 1825 1390 1603 1196 1025 712 443 621 652 701 308 357 350 197 56 127 169 99
1365 1800 1863 1644 1667 1747 2100 2370 2834 3020 2759 2357 2223 2648 1974 1944 867 926 1710 1599 1853 1789 1805 1864 1945 2030 1931 1761 1559 1038 1162 948 816 468 616 478 224 179 186 160 121 113 135
358 1630 1882 1820 1642 1816 1938 2430 2920 3040 3144 3093 2598 2264 2621 1869 1930 1542 1570 1616 1450 1644 1875 1899 2322 2161 2086 1788 1632 1313 1076 934 617 569 662 584 463 282 163 135 41 2 46
187 810 1549 1919 1864 1830 2081 2218 3008 3225 3327 3358 3060 2694 2505 2686 1935 1664 1595 1333 1716 1634 1616 1952 2004 2181 2099 2116 1939 1595 1624 1414 1019 845 832 754 598 420 107 73 58 157 82
39 405 1441 1773 2019 1966 2242 2228 3013 3326 3311 3392 3442 3159 2829 2370 2071 1825 1608 1451 2290 1712 2061 2184 2055 2171 2320 2371 2341 2120 1841 1685 1711 1563 1519 1265 520 143 578 350 193 60 18
8 643 1022 1583 1749 1885 2123 2407 2757 3152 3216 3246 3412 3488 3114 2778 2408 2460 2025 2107 1738 2097 2095 2435 2143 2175 2249 2420 2254 2255 1950 1722 1850 1550 1214 1379 704 229 799 571 409 290 96
0 564 956 1357 1692 1796 1880 2219 2605 2761 3080 3182 3285 3291 3361 3213 2929 2502 3077 2388 2814 2721 2505 2066 2253 2433 2452 2401 2226 2150 2036 1801 1748 1602 1582 1314 960 722 911 623 382 209 206
106 302 932 1142 1450 1547 1601 1836 2303 2464 2940 3046 3173 3264 3254 3170 3182 3058 2769 3040 2685 2556 2836 2999 2418 2760 2733 2861 2611 2147 2176 1865 1672 1605 1600 1393 1151 1294 1036 857 419 416 356
770 978 939 36 440 768 1334 1662 2156 2347 2381 2842 3017 3140 3209 3251 3005 3037 2996 3010 3030 3062 3031 2958 3048 2810 2921 2868 2656 2318 2075 1806 1686 1582 1582 1371 1315 1306 1193 868 694 585 608
224 463 1071 328 246 434 463 1898 2152 2149 1964 2289 2368 2597 2910 2929 2968 2971 3023 2882 3063 3179 3133 3052 2960 2953 3045 2920 2636 2361 2196 2139 2051 1821 1515 1695 1515 1245 1328 1352 1242 1062 1119
282 384 944 237 1 74 163 2439 2154 2043 1893 2060 1952 2132 2476 2432 2646 2827 2940 3138 3079 3144 3174 3026 3158 3264 2971 2736 2773 2661 2554 2327 1901 1884 1748 1972 1636 1131 1267 1197 1136 1023 979
321 356 445 479 370 563 1758 1748 2502 2334 2320 1897 2658 2149 2508 2478 2682 3013 3181 3200 3189 3347 3112 3103 3132 3144 2961 2761 2676 2666 2570 2384 2214 2072 1805 1831 1765 1200 1096 938 910 1180 1468
231 291 236 402 737 872 1076 1873 1860 3194 2611 3164 2334 3219 2971 2786 2948 3472 3765 3510 3426 3506 3569 3173 3357 3240 2897 2492 2473 2448 2511 2407 2238 2163 2017 1938 1624 1579 1400 893 578 428 383
136 272 264 216 300 562 863 1416 2269 1984 3493 3085 3979 3428 3744 3650 3471 3724 4056 3988 3979 3828 3922 3464 3218 3400 2949 2351 2034 2355 2270 2260 2130 1933 1638 1527 1708 1805 1736 1798 1523 1247 1241
90 141 221 273 333 309 542 1160 1744 2159 1774 3524 3168 3942 4064 4256 4030 3993 4175 4239 4204 4042 4013 3504 3228 3393 3140 2189 1848 1950 2029 1964 1995 2234 1765 1873 1643 1634 1215 1682 1525 1433 1430
280 327 449 375 214 200 377 640 1564 2068 2482 1811 3889 4232 4142 4393 4341 4315 4344 4344 4234 3920 3906 3419 3361 2976 2752 1916 1784 1754 1972 1700 1708 1825 1972 1738 1651 1639 1516 1363 1377 1147 1188
207 406 537 590 474 369 297 625 1255 1848 2735 2541 3386 4166 4281 4397 4509 4557 4532 4425 4225 3761 3380 3219 3251 2987 2553 2184 1473 1390 1534 1658 1749 1741 1829 2017 1649 1313 937 958 1278 1124 1039
338 463 637 656 648 717 727 813 955 1940 2794 3640 3076 3856 4121 4390 4298 4423 4485 4315 4038 3519 3190 3404 3114 3116 2698 2612 1563 1319 1157 1414 1696 1766 1697 1420 974 721 627 608 720 723 669
471 565 775 654 564 669 835 1119 1269 1497 2337 3204 3546 3675 3235 3375 3741 3910 3913 3425 2378 2701 2721 2467 2390 2190 2462 2359 2021 1403 1188 973 820 1187 1079 1148 974 779 516 388 270 192 350
644 828 925 773 721 744 788 1224 1337 1493 2327 2469 3657 3687 3448 3352 2979 2209 1359 1031 612 724 741 515 252 93 876 1610 1858 1647 1274 997 1123 1245 1107 984 897 691 806 547 166 243 372
926 1041 1022 934 828 741 856 955 1204 1510 1526 2145 3235 3612 3168 2368 1146 556 135 104 22 9 20 0 0 0 40 580 539 1692 1801 1568 981 1120 1255 1058 1053 1010 846 659 550 478 392
1176 1057 855 695 698 759 871 996 977 1514 1809 2592 2712 2900 2252 830 202 70 0 0 0 0 0 0 0 0 129 64 161 209 325 350 253 558 826 796 665 577 504 342 298 269 193
CIN
-91 -105 -121 -124 -87 -56 -41 -36 -14 -6 -13 -4 -27 -23 -73 -37 -37 -21 -9 -13 -6 -1 -5 -7 -27 -13 -25 -33 -51 -67 -38 -67 -70 -9 -16 -17 -22 -26 -25 -63 -107 -99 -54
-91 -88 -120 -116 -88 -62 -36 -28 -14 -4 -5 -4 -7 -21 -32 -41 -46 -54 -38 -25 -24 -1 -2 -7 -12 -23 -4 -19 -30 -34 -38 -23 -24 -29 -68 -26 -9 -4 -4 -13 -48 -68 -53
-87 -112 -100 -97 -88 -50 -23 -23 -23 -24 -20 -10 -1 -1 -1 -14 -57 -59 -34 -67 -40 -20 -10 -7 -8 -16 -13 -9 -25 -10 -12 -21 -11 -41 -29 -33 -20 -34 -17 -29 -21 -27 -34
-61 -96 -104 -86 -76 -22 -30 -22 -18 -31 -27 -5 -7 -5 -31 -37 -73 -84 -16 -57 -37 -15 -6 -3 -16 -12 -14 -1 -12 -33 -23 -14 -20 -17 -43 -26 -13 -47 -20 -16 -33 -50 -20
-40 -58 -102 -81 -43 -24 -29 -17 -19 -19 -57 -28 -4 -19 -8 -9 -47 -20 -16 -5 -28 -29 -11 -1 -5 -12 -18 -15 -7 -15 -3 -21 -21 -25 -21 -31 -23 -15 -7 -19 -34 -9 -13
-23 -39 -64 -60 -36 -26 -10 -25 -31 -17 -29 -50 -30 -5 -29 -12 -40 -31 -3 -8 -12 -25 -26 -14 -10 -13 -19 -21 -14 -10 -6 -23 -24 -21 -22 -27 -24 -13 -10 -7 -12 -19 -15
-5 -19 -36 -44 -41 -11 -16 -13 -39 -39 -14 -19 -42 -40 -17 -41 -18 -16 -9 -6 -13 -15 -32 -36 -21 -22 -15 -16 -14 -15 -22 -26 -34 -28 -29 -19 -32 -29 -12 -13 -28 -30 -30
-6 -6 -23 -28 -31 -20 -16 -13 -30 -41 -31 -6 -34 -52 -48 -26 -47 -34 -23 -18 -5 -6 -8 -31 -35 -25 -10 -6 -13 -18 -8 -18 -31 -40 -30 -32 -34 -31 -46 -29 -21 -5 -11
-83 -4 -14 -25 -26 -30 -15 -25 -24 -39 -45 -28 -14 -32 -52 -68 -66 -68 -44 -33 -5 -9 -9 -31 -35 -26 -20 -12 -6 -7 -7 -6 -8 -15 -6 -13 -43 -67 -15 -10 -11 -31 -36
-6 -4 -4 -9 -28 -29 -8 -13 -14 -39 -47 -32 -23 -23 -45 -64 -72 -41 -52 -40 -34 -13 -8 -6 -10 -8 -11 -12 -11 -3 -3 -5 -8 -14 -20 -3 -47 -80 -7 -12 -3 -1 -14
-0 -5 -3 -5 -13 -21 -9 -10 -18 -31 -44 -40 -25 -39 -37 -50 -63 -63 -18 -43 -12 -9 -13 -13 -15 -11 -14 -9 -12 -13 -3 -5 -8 -10 -2 -8 -17 -26 -16 -21 -21 -29 -10
-49 -31 -3 -3 -5 -14 -11 -30 -46 -47 -51 -57 -41 -43 -41 -49 -55 -70 -65 -29 -54 -42 -21 -5 -20 -3 -5 -2 -3 -11 -2 -2 -7 -7 -2 -6 -7 -1 -4 -10 -33 -19 -12
-70 -73 -156 -211 -250 -126 -22 -30 -57 -47 -49 -45 -50 -38 -47 -48 -66 -71 -73 -49 -41 -39 -23 -16 -13 -21 -2 -2 -4 -11 -4 -7 -7 -7 -4 -2 -3 -3 -5 -19 -28 -26 -16
-114 -146 -182 -255 -195 -110 -195 -33 -50 -57 -46 -51 -56 -60 -64 -63 -62 -55 -57 -55 -43 -35 -32 -14 -15 -14 -3 -2 -3 -7 -8 -5 -7 -7 -8 -4 -4 -7 -7 -2 -8 -5 -2
-138 -150 -143 -324 -296 -284 -230 -41 -21 -66 -56 -39 -65 -75 -76 -67 -60 -60 -45 -27 -23 -31 -39 -30 -3 -3 -7 -6 -4 -5 -1 -6 -12 -5 -8 -2 -13 -46 -30 -26 -18 -17 -13
-147 -174 -119 -230 -293 -279 -89 -68 -11 -17 -57 -58 -41 -79 -78 -85 -62 -46 -62 -52 -42 -21 -44 -46 -30 -19 -26 -36 -27 -15 -7 -3 -7 -4 -15 -8 -12 -55 -64 -67 -55 -23 -4
-148 -203 -168 -125 -137 -123 -103 -55 -69 -14 -47 -51 -83 -59 -83 -107 -91 -57 -44 -79 -82 -47 -33 -52 -31 -36 -46 -72 -67 -36 -19 -18 -19 -10 -13 -8 -21 -22 -34 -77 -106 -118 -132
-143 -189 -201 -194 -207 -206 -176 -113 -70 -97 -19 -57 -64 -45 -45 -89 -112 -84 -57 -59 -56 -51 -25 -33 -38 -19 -47 -103 -111 -54 -35 -24 -25 -31 -54 -44 -13 -3 -11 -8 -20 -34 -27
-121 -199 -240 -241 -250 -233 -182 -131 -84 -74 -138 -58 -95 -40 -9 -21 -84 -95 -84 -56 -21 -29 -19 -31 -27 -10 -16 -95 -137 -109 -80 -70 -49 -10 -24 -18 -28 -11 -30 -6 -2 -6 -10
-116 -163 -176 -211 -236 -250 -216 -170 -104 -89 -81 -159 -35 -9 -19 -3 -35 -54 -55 -48 -29 -26 -7 -25 -11 -14 -14 -102 -118 -115 -69 -111 -92 -54 -23 -28 -21 -14 -15 -19 -5 -9 -12
-105 -118 -140 -142 -175 -204 -227 -193 -161 -111 -62 -83 -40 -4 -11 -3 -2 -1 -0 -4 -18 -31 -31 -24 -11 -26 -36 -70 -130 -132 -88 -43 -22 -29 -19 -7 -12 -20 -46 -35 -16 -19 -15
-118 -110 -111 -121 -130 -132 -133 -165 -188 -94 -48 -5 -38 -6 -4 -1 -2 -1 -0 -1 -2 -8 -7 -2 -2 -5 -14 -14 -109 -143 -146 -50 -13 -5 -4 -17 -66 -88 -90 -75 -57 -54 -53
-85 -77 -68 -107 -135 -121 -87 -80 -124 -132 -67 -22 -1 -5 -17 -12 -9 -6 -4 -9 -49 -58 -45 -55 -46 -17 -4 -13 -33 -95 -132 -136 -145 -62 -60 -38 -52 -74 -101 -124 -143 -154 -74
-26 -33 -37 -75 -92 -101 -104 -45 -70 -88 -24 -47 -1 -1 -3 -27 -8 -90 -282 -333 -286 -297 -262 -366 -488 -425 -198 -7 -26 -55 -94 -116 -60 -39 -52 -49 -42 -61 -41 -60 -174 -100 -51
-8 -20 -40 -71 -96 -125 -116 -97 -66 -60 -89 -43 -2 -0 -3 -40 -288 -499 -380 -680 -731 -253 -557 -0 -0 -0 -68 -60 -161 -33 -11 -14 -51 -18 -2 -7 -0 -2 -5 -3 -3 -14 -17
-2 -4 -36 -71 -134 -148 -140 -100 -108 -44 -20 -0 -11 -4 -16 -344 -615 -763 -39 -0 -0 -0 -0 -0 -0 -0 -238 -224 -244 -234 -174 -175 -170 -49 -2 -1 -3 -4 -6 -14 -7 -7 -11
Wind_Speed
17 18 20 20 20 18 17 16 15 13 7 1 7 2 5 3 3 7 5 6 5 5 6 7 8 10 7 6 6 7 9 8 9 11 9 12 12 13 14 15 19 27 19
17 18 19 19 20 19 17 17 17 15 16 18 14 22 10 2 3 6 2 3 4 4 5 6 7 7 6 5 6 8 8 8 9 10 11 10 11 10 12 11 17 18 16
16 16 18 19 19 18 18 17 18 18 20 23 18 11 5 5 1 1 1 3 3 4 6 7 9 9 8 6 6 7 9 8 9 9 10 12 12 11 9 8 8 9 10
12 13 17 18 19 18 18 17 19 18 21 23 15 15 16 11 13 7 2 3 6 7 9 10 11 8 11 7 5 7 8 11 9 8 8 8 11 11 12 8 9 5 5
15 16 16 17 20 19 18 17 18 18 20 19 21 19 16 15 10 6 9 4 7 9 10 8 8 10 9 16 10 5 2 9 8 6 8 6 5 4 10 11 8 5 4
7 16 14 16 19 20 19 17 17 19 19 20 25 18 15 16 6 8 2 3 1 5 8 10 7 6 6 13 9 7 3 4 3 5 4 6 13 9 9 9 8 7 7
6 11 14 16 20 20 19 17 17 18 19 18 19 20 15 18 15 7 4 1 2 3 8 11 5 4 6 7 5 4 2 2 4 1 2 5 7 7 14 8 9 11 10
10 17 13 15 18 19 19 16 17 16 18 19 18 17 17 13 17 15 11 10 3 1 2 8 4 3 2 3 1 1 3 3 5 6 10 13 12 16 14 6 7 12 8
23 14 10 12 16 18 18 16 16 16 17 19 18 16 16 17 13 13 13 21 10 12 14 4 5 2 3 2 3 2 1 2 5 5 6 10 14 21 21 13 6 6 12
23 13 6 10 14 18 17 15 15 16 16 18 18 18 18 19 19 14 14 12 16 14 7 2 6 5 3 2 2 3 9 1 1 4 4 4 10 19 20 18 10 6 6
23 19 6 11 13 17 14 14 16 17 17 19 18 19 18 18 18 21 18 19 14 10 10 5 1 1 1 2 2 6 2 3 2 2 3 3 3 4 9 17 12 10 9
21 22 8 6 12 15 15 13 15 18 18 18 18 17 16 18 18 18 19 20 20 19 15 10 10 8 7 10 9 10 8 5 4 3 3 4 5 5 6 9 10 14 8
20 20 20 14 9 15 9 14 13 15 17 15 16 16 16 17 19 18 18 17 18 18 18 15 14 15 16 18 16 11 8 6 4 5 5 5 6 8 9 10 10 9 9
18 20 22 16 6 20 22 20 11 12 15 12 13 15 15 16 17 19 16 17 15 14 14 16 14 13 12 11 9 8 9 6 5 6 7 6 7 7 9 8 8 8 10
16 19 18 14 5 11 27 29 7 10 12 8 10 12 14 16 16 17 17 15 14 13 12 11 13 11 10 10 8 5 6 7 6 7 8 7 7 7 7 7 8 8 10
18 17 17 11 9 7 20 23 25 15 6 11 2 6 10 12 12 10 9 9 10 9 10 10 9 8 7 6 6 5 6 6 6 6 7 8 8 7 6 5 4 13 16
21 20 19 18 18 20 22 27 27 24 19 10 10 6 6 9 9 5 5 6 7 5 5 6 6 4 4 4 6 6 5 6 5 5 5 6 6 6 6 6 6 4 2
22 22 22 23 25 26 28 27 28 30 28 20 15 16 11 9 8 6 5 4 2 2 2 1 1 2 3 4 4 4 3 5 4 4 4 4 6 5 4 4 4 4 3
25 27 27 28 29 31 31 30 30 28 29 26 22 16 15 11 10 9 8 6 5 4 3 4 4 5 6 4 3 2 4 5 3 2 3 3 2 3 3 4 3 2 3
29 31 33 34 35 35 33 34 32 32 30 29 27 20 18 17 15 13 11 9 8 8 8 7 8 11 12 8 2 2 6 5 4 5 6 1 3 3 9 5 1 1 2
27 31 34 35 36 35 36 36 36 34 34 29 28 24 20 20 18 16 14 13 11 9 9 10 10 9 9 10 5 3 8 8 8 7 6 5 4 2 4 6 4 4 9
34 35 34 35 35 35 37 37 38 37 35 34 29 25 23 22 20 18 14 15 14 11 9 12 12 13 14 12 8 6 5 10 17 19 17 15 15 13 10 7 8 10 12
32 31 33 34 35 35 37 39 39 39 38 37 31 26 23 19 18 15 14 14 14 10 10 10 12 16 23 19 14 9 9 11 16 18 22 21 19 18 17 13 11 14 17
33 33 35 36 37 37 38 39 39 40 40 40 36 30 23 22 18 15 13 13 13 15 17 13 14 24 30 33 21 16 15 16 20 20 18 18 18 18 18 18 17 15 15
35 35 37 40 41 41 42 41 42 40 42 42 40 30 26 19 16 13 12 11 11 9 11 15 23 35 54 36 25 18 15 17 19 20 17 17 18 19 18 18 17 16 17
36 36 39 43 45 45 45 43 42 41 43 42 41 33 20 18 14 12 11 11 11 14 19 24 25 13 7 17 23 21 20 20 20 18 18 18 19 20 19 20 19 19 20
Wind_Direction
148 141 151 148 145 138 131 135 135 140 123 218 264 136 128 344 74 330 56 73 36 75 80 69 82 117 64 75 63 63 123 82 80 48 92 178 170 164 168 175 190 215 191
150 151 153 152 153 144 137 137 143 140 146 155 149 165 139 325 343 312 13 59 44 69 88 100 105 109 86 77 91 103 86 83 101 71 59 85 87 138 155 151 182 183 184
148 150 153 158 157 150 145 143 147 145 150 156 149 136 117 304 41 84 27 93 83 120 129 126 139 144 133 114 117 135 125 93 100 118 61 30 30 68 94 130 142 154 168
150 152 160 163 161 156 149 148 151 150 157 162 145 149 155 142 153 134 343 132 130 141 150 150 155 142 159 148 124 153 158 125 87 88 150 153 25 30 32 78 123 107 137
155 159 162 163 167 159 153 149 153 154 157 160 163 159 153 157 143 130 146 128 145 149 161 157 159 167 162 191 169 158 43 137 56 87 48 127 126 113 11 13 51 106 96
170 156 156 160 164 162 158 153 154 160 160 164 177 165 162 164 137 146 95 124 81 148 165 172 169 164 162 185 169 166 62 45 97 163 46 24 357 9 2 6 31 40 36
34 142 147 155 163 165 161 156 156 160 164 163 168 175 166 172 171 152 147 345 144 153 162 168 162 157 166 165 146 151 111 31 7 66 9 11 11 8 345 353 5 3 19
151 136 137 151 158 161 161 154 157 158 163 167 168 170 174 165 175 172 161 163 162 334 175 177 179 168 112 139 112 35 355 3 351 347 343 338 340 332 343 348 346 350 7
322 47 120 139 150 156 157 156 154 158 160 168 168 168 170 175 171 171 175 190 166 173 310 126 149 141 143 127 357 359 155 355 344 355 354 340 336 322 315 332 353 346 344
310 345 102 137 145 154 153 154 153 157 158 164 167 168 170 177 179 170 174 170 182 178 252 94 153 147 125 48 26 161 180 91 100 12 9 1 347 323 316 322 337 348 352
305 303 80 133 137 147 146 151 154 155 154 162 163 166 168 169 174 184 178 182 171 164 174 176 102 69 30 29 105 166 137 21 119 89 40 87 62 53 359 330 338 334 338
314 289 353 124 134 140 144 143 149 157 155 156 160 162 162 166 167 173 180 182 185 187 177 164 170 161 159 166 169 175 164 152 143 126 80 66 100 114 108 33 2 327 8
315 320 329 314 304 258 156 138 139 149 155 148 152 158 161 165 172 169 172 174 179 180 182 176 173 177 184 190 186 173 156 143 96 47 52 73 105 100 79 88 85 76 78
328 331 331 359 308 256 246 204 146 147 157 146 151 157 161 164 169 176 168 172 169 170 172 178 169 168 166 162 154 141 152 131 89 55 27 71 83 80 85 85 84 60 33
326 334 347 5 30 165 232 226 156 159 163 158 158 158 161 166 165 167 171 165 162 158 153 154 161 150 146 152 142 110 57 39 71 113 132 112 70 61 47 42 28 31 11
315 325 335 8 23 320 296 284 272 283 207 185 237 175 166 167 164 161 157 153 153 145 148 146 148 139 135 120 122 100 58 63 77 89 121 136 124 120 114 111 80 353 337
306 308 313 314 317 317 307 289 289 285 273 257 221 249 204 182 181 178 169 163 156 146 139 144 137 124 111 55 145 131 60 69 84 95 93 116 100 133 131 142 162 156 44
308 312 305 308 306 302 296 299 294 283 279 268 276 198 206 206 199 203 210 205 204 174 157 115 46 39 34 16 44 118 64 27 63 74 85 119 150 53 136 112 118 130 114
312 308 306 302 301 300 293 293 295 294 282 275 271 258 266 246 228 216 221 243 259 262 287 309 319 325 339 356 12 49 9 4 22 53 33 31 67 136 128 168 140 84 163
308 311 306 299 298 295 294 288 291 291 286 280 275 267 258 260 241 242 242 251 261 280 290 302 309 311 316 328 330 11 349 350 352 343 339 230 180 10 354 185 198 270 268
312 313 309 302 298 296 291 288 287 287 288 285 278 270 263 259 251 250 251 255 259 270 274 289 300 303 305 310 302 310 332 331 335 334 339 338 332 314 329 328 317 318 341
311 313 307 302 298 295 290 287 283 284 286 286 279 273 268 265 259 244 240 251 250 262 268 289 299 304 305 303 290 292 311 326 321 321 327 334 334 332 330 324 319 323 327
309 309 308 303 300 296 290 285 284 281 281 282 281 274 267 265 256 243 242 242 256 251 265 280 297 306 299 297 295 294 309 314 315 318 316 320 324 326 328 328 321 326 324
303 306 303 301 298 297 292 285 285 280 277 274 278 274 259 260 257 264 264 267 281 285 280 292 311 311 303 277 292 300 310 313 313 316 321 324 326 326 327 329 330 329 329
299 301 300 297 295 292 289 286 283 281 274 271 271 271 266 256 245 253 266 272 285 285 270 284 306 326 288 273 285 300 319 322 322 321 329 333 332 330 332 334 336 337 334
297 298 298 295 292 290 285 284 283 280 273 270 267 266 254 242 232 237 264 291 298 300 300 304 314 323 320 296 289 307 316 320 323 329 331 334 336 336 339 341 343 342 340